GEFSNGP_prec_meanprecacc_156.txt.gz
Total_Precipitation_Accumulation
0.28 0.30 0.41 0.46 0.40 0.39 0.47 0.54 0.68 0.67 0.66 0.54 0.50 0.54 0.57 0.54 0.50 0.47 0.41 0.35 0.36 0.36 0.39 0.38 0.38 0.40 0.40 0.38 0.44 0.52 0.66 0.78 0.83 0.86 0.88 0.85 0.79 0.77 0.81 0.78 0.77 0.90 1.07 1.24
0.18 0.19 0.27 0.34 0.35 0.36 0.36 0.40 0.51 0.58 0.57 0.44 0.40 0.39 0.39 0.37 0.31 0.30 0.31 0.27 0.25 0.25 0.27 0.26 0.25 0.25 0.26 0.33 0.41 0.47 0.55 0.66 0.81 0.88 0.81 0.76 0.70 0.69 0.72 0.71 0.68 0.77 0.91 1.09
0.27 0.23 0.25 0.50 0.52 0.52 0.53 0.46 0.46 0.41 0.33 0.21 0.20 0.23 0.26 0.26 0.27 0.30 0.27 0.21 0.19 0.19 0.21 0.22 0.23 0.25 0.28 0.35 0.44 0.45 0.49 0.61 0.81 0.82 0.71 0.66 0.72 0.76 0.73 0.71 0.71 0.76 0.79 0.82
0.29 0.32 0.61 0.84 0.62 0.59 0.54 0.32 0.18 0.13 0.13 0.12 0.17 0.17 0.15 0.16 0.19 0.22 0.20 0.16 0.14 0.13 0.13 0.14 0.17 0.21 0.24 0.28 0.32 0.36 0.41 0.51 0.66 0.69 0.67 0.70 0.71 0.69 0.64 0.60 0.59 0.62 0.65 0.69
0.32 0.38 0.62 0.65 0.42 0.34 0.34 0.22 0.08 0.07 0.08 0.10 0.12 0.11 0.09 0.09 0.10 0.12 0.11 0.08 0.06 0.06 0.06 0.05 0.06 0.07 0.11 0.13 0.16 0.21 0.28 0.37 0.47 0.50 0.55 0.58 0.57 0.57 0.53 0.50 0.52 0.53 0.58 0.65
0.47 0.59 0.61 0.32 0.17 0.16 0.22 0.27 0.08 0.04 0.04 0.04 0.06 0.09 0.06 0.04 0.05 0.06 0.06 0.04 0.03 0.02 0.01 0.01 0.01 0.02 0.04 0.07 0.10 0.14 0.21 0.27 0.35 0.38 0.42 0.44 0.49 0.52 0.52 0.49 0.47 0.47 0.50 0.54
0.48 0.68 0.56 0.22 0.11 0.12 0.22 0.28 0.09 0.03 0.02 0.02 0.02 0.04 0.02 0.03 0.04 0.04 0.04 0.03 0.01 0.01 0.00 0.00 0.01 0.01 0.02 0.05 0.08 0.09 0.12 0.17 0.23 0.31 0.38 0.46 0.52 0.53 0.56 0.53 0.48 0.47 0.55 0.56
0.41 0.56 0.51 0.20 0.15 0.19 0.18 0.08 0.03 0.02 0.02 0.01 0.01 0.01 0.01 0.02 0.02 0.03 0.03 0.02 0.01 0.01 0.00 0.01 0.01 0.01 0.01 0.02 0.03 0.05 0.07 0.12 0.19 0.26 0.34 0.42 0.52 0.55 0.55 0.55 0.54 0.56 0.57 0.60
0.44 0.58 0.38 0.23 0.21 0.19 0.13 0.06 0.03 0.02 0.01 0.01 0.01 0.00 0.00 0.01 0.02 0.02 0.03 0.02 0.01 0.01 0.01 0.01 0.01 0.01 0.00 0.00 0.00 0.01 0.03 0.07 0.12 0.16 0.20 0.25 0.34 0.42 0.48 0.53 0.54 0.55 0.60 0.68
0.33 0.33 0.20 0.18 0.17 0.12 0.07 0.04 0.02 0.01 0.00 0.01 0.01 0.00 0.00 0.01 0.01 0.02 0.02 0.02 0.01 0.01 0.01 0.01 0.00 0.00 0.00 0.00 0.00 0.01 0.02 0.04 0.06 0.07 0.08 0.11 0.20 0.29 0.36 0.44 0.50 0.57 0.63 0.72
0.25 0.26 0.15 0.11 0.10 0.07 0.05 0.02 0.01 0.01 0.01 0.01 0.01 0.00 0.00 0.00 0.01 0.01 0.01 0.01 0.01 0.01 0.01 0.00 0.00 0.00 0.00 0.01 0.01 0.01 0.01 0.02 0.03 0.05 0.07 0.09 0.15 0.23 0.28 0.36 0.39 0.44 0.54 0.66
0.25 0.23 0.18 0.09 0.07 0.05 0.03 0.02 0.02 0.01 0.01 0.00 0.01 0.00 0.00 0.00 0.01 0.01 0.01 0.01 0.01 0.01 0.01 0.00 0.00 0.00 0.01 0.03 0.02 0.05 0.07 0.03 0.03 0.05 0.07 0.09 0.12 0.14 0.14 0.17 0.18 0.22 0.28 0.33
0.13 0.13 0.11 0.06 0.05 0.03 0.02 0.02 0.01 0.01 0.00 0.00 0.00 0.01 0.01 0.01 0.01 0.01 0.01 0.01 0.01 0.01 0.01 0.01 0.00 0.00 0.01 0.02 0.06 0.12 0.15 0.11 0.08 0.06 0.07 0.08 0.09 0.12 0.13 0.09 0.07 0.09 0.10 0.16
0.06 0.08 0.08 0.06 0.03 0.02 0.01 0.01 0.01 0.00 0.00 0.00 0.01 0.01 0.01 0.01 0.01 0.01 0.01 0.01 0.01 0.01 0.02 0.01 0.00 0.00 0.00 0.01 0.03 0.03 0.04 0.04 0.06 0.09 0.07 0.06 0.10 0.16 0.22 0.24 0.19 0.11 0.06 0.09
0.04 0.05 0.06 0.05 0.02 0.01 0.01 0.01 0.00 0.00 0.00 0.00 0.00 0.00 0.00 0.01 0.01 0.01 0.01 0.01 0.01 0.01 0.02 0.01 0.01 0.01 0.01 0.01 0.01 0.01 0.02 0.04 0.10 0.12 0.08 0.08 0.14 0.22 0.24 0.24 0.24 0.17 0.10 0.07
0.02 0.02 0.03 0.03 0.02 0.01 0.00 0.00 0.00 0.00 0.00 0.00 0.00 0.00 0.00 0.00 0.01 0.01 0.01 0.02 0.02 0.02 0.02 0.01 0.01 0.01 0.01 0.01 0.02 0.03 0.04 0.04 0.11 0.17 0.12 0.12 0.15 0.16 0.16 0.18 0.17 0.13 0.11 0.10
0.01 0.01 0.02 0.02 0.02 0.01 0.01 0.01 0.00 0.00 0.00 0.00 0.00 0.00 0.00 0.00 0.00 0.01 0.01 0.01 0.02 0.02 0.02 0.02 0.02 0.01 0.01 0.02 0.02 0.05 0.08 0.05 0.06 0.18 0.22 0.19 0.18 0.17 0.19 0.20 0.17 0.13 0.09 0.06
0.01 0.01 0.02 0.03 0.02 0.02 0.01 0.01 0.01 0.01 0.01 0.01 0.01 0.01 0.01 0.01 0.01 0.01 0.01 0.01 0.01 0.02 0.02 0.02 0.03 0.02 0.02 0.02 0.03 0.03 0.05 0.06 0.07 0.17 0.23 0.19 0.17 0.18 0.20 0.19 0.17 0.15 0.12 0.08
0.03 0.03 0.03 0.04 0.03 0.02 0.02 0.01 0.01 0.01 0.01 0.01 0.01 0.01 0.01 0.01 0.01 0.01 0.01 0.01 0.01 0.02 0.02 0.02 0.03 0.03 0.02 0.02 0.03 0.04 0.04 0.05 0.07 0.12 0.13 0.10 0.11 0.15 0.17 0.18 0.17 0.15 0.13 0.12
0.04 0.03 0.02 0.02 0.02 0.01 0.01 0.01 0.01 0.01 0.01 0.01 0.01 0.01 0.01 0.01 0.01 0.01 0.01 0.01 0.02 0.02 0.02 0.02 0.03 0.02 0.02 0.02 0.04 0.04 0.05 0.05 0.07 0.09 0.10 0.12 0.15 0.17 0.16 0.16 0.17 0.18 0.16 0.16
0.03 0.02 0.02 0.01 0.01 0.01 0.01 0.01 0.01 0.01 0.00 0.01 0.01 0.01 0.01 0.01 0.01 0.02 0.03 0.03 0.02 0.02 0.02 0.03 0.03 0.03 0.03 0.04 0.05 0.06 0.07 0.06 0.07 0.09 0.10 0.12 0.13 0.15 0.16 0.17 0.19 0.21 0.22 0.19
0.02 0.02 0.02 0.01 0.01 0.01 0.01 0.01 0.01 0.01 0.01 0.01 0.01 0.02 0.02 0.02 0.03 0.03 0.04 0.04 0.04 0.04 0.04 0.04 0.04 0.04 0.06 0.07 0.07 0.07 0.07 0.06 0.07 0.10 0.13 0.14 0.15 0.16 0.16 0.17 0.20 0.21 0.23 0.24
0.02 0.02 0.03 0.02 0.02 0.02 0.02 0.02 0.02 0.02 0.02 0.02 0.03 0.04 0.05 0.05 0.05 0.06 0.05 0.05 0.05 0.05 0.05 0.05 0.06 0.08 0.10 0.09 0.09 0.08 0.07 0.07 0.08 0.10 0.12 0.14 0.15 0.17 0.17 0.18 0.19 0.21 0.24 0.28
0.04 0.04 0.03 0.04 0.04 0.04 0.03 0.03 0.03 0.03 0.03 0.03 0.04 0.06 0.06 0.07 0.06 0.06 0.06 0.06 0.06 0.07 0.06 0.06 0.08 0.11 0.13 0.10 0.10 0.10 0.09 0.09 0.11 0.11 0.12 0.13 0.15 0.17 0.19 0.21 0.23 0.23 0.25 0.28
0.05 0.05 0.05 0.05 0.06 0.06 0.05 0.04 0.03 0.03 0.03 0.04 0.04 0.04 0.04 0.05 0.05 0.06 0.06 0.07 0.07 0.07 0.07 0.08 0.11 0.13 0.11 0.10 0.11 0.12 0.12 0.13 0.14 0.16 0.16 0.17 0.18 0.20 0.21 0.23 0.25 0.27 0.30 0.32
0.05 0.04 0.04 0.05 0.06 0.07 0.07 0.06 0.06 0.05 0.05 0.04 0.04 0.03 0.03 0.03 0.03 0.04 0.04 0.05 0.06 0.07 0.07 0.07 0.07 0.07 0.07 0.07 0.08 0.09 0.09 0.10 0.11 0.13 0.14 0.16 0.17 0.20 0.21 0.22 0.23 0.27 0.32 0.35
0.06 0.05 0.05 0.05 0.05 0.06 0.07 0.07 0.08 0.09 0.08 0.07 0.06 0.05 0.05 0.05 0.05 0.05 0.04 0.04 0.05 0.05 0.06 0.07 0.07 0.07 0.08 0.08 0.08 0.08 0.08 0.08 0.09 0.11 0.12 0.13 0.14 0.17 0.19 0.21 0.24 0.27 0.31 0.35

GEFSNGP_prec_meanprecacc_162.txt.gz
Total_Precipitation_Accumulation
0.29 0.30 0.41 0.46 0.40 0.39 0.47 0.54 0.68 0.67 0.66 0.54 0.50 0.54 0.57 0.54 0.50 0.47 0.41 0.36 0.36 0.36 0.39 0.38 0.38 0.40 0.40 0.39 0.45 0.52 0.66 0.78 0.83 0.87 0.88 0.85 0.79 0.77 0.81 0.78 0.77 0.91 1.08 1.24
0.19 0.20 0.27 0.34 0.36 0.36 0.36 0.40 0.51 0.58 0.57 0.44 0.40 0.39 0.39 0.37 0.31 0.31 0.31 0.27 0.25 0.25 0.27 0.26 0.25 0.25 0.26 0.33 0.42 0.48 0.55 0.66 0.81 0.88 0.81 0.77 0.70 0.69 0.72 0.71 0.68 0.78 0.92 1.09
0.28 0.24 0.26 0.50 0.52 0.52 0.53 0.46 0.46 0.41 0.33 0.21 0.21 0.23 0.26 0.26 0.27 0.31 0.27 0.22 0.19 0.20 0.21 0.22 0.23 0.26 0.28 0.35 0.44 0.45 0.49 0.61 0.81 0.82 0.71 0.66 0.72 0.76 0.73 0.71 0.71 0.76 0.80 0.82
0.30 0.33 0.62 0.84 0.62 0.59 0.54 0.33 0.19 0.13 0.13 0.12 0.17 0.17 0.16 0.16 0.19 0.23 0.21 0.16 0.14 0.13 0.13 0.14 0.17 0.21 0.24 0.28 0.32 0.36 0.41 0.51 0.66 0.69 0.67 0.70 0.71 0.69 0.65 0.60 0.59 0.63 0.65 0.70
0.33 0.39 0.63 0.65 0.42 0.34 0.34 0.22 0.08 0.07 0.08 0.10 0.13 0.11 0.09 0.09 0.11 0.12 0.12 0.08 0.07 0.06 0.06 0.06 0.06 0.08 0.11 0.13 0.16 0.21 0.28 0.37 0.47 0.50 0.55 0.58 0.57 0.57 0.53 0.50 0.52 0.54 0.58 0.66
0.47 0.59 0.61 0.33 0.17 0.16 0.23 0.27 0.08 0.04 0.04 0.04 0.06 0.09 0.06 0.04 0.05 0.06 0.06 0.05 0.03 0.02 0.01 0.01 0.01 0.02 0.04 0.07 0.10 0.14 0.21 0.27 0.35 0.38 0.42 0.44 0.49 0.52 0.52 0.49 0.47 0.47 0.50 0.54
0.49 0.69 0.56 0.22 0.11 0.12 0.22 0.28 0.09 0.03 0.02 0.02 0.02 0.04 0.02 0.03 0.04 0.04 0.04 0.03 0.02 0.01 0.00 0.00 0.01 0.01 0.02 0.05 0.08 0.09 0.12 0.17 0.23 0.31 0.38 0.46 0.52 0.53 0.56 0.53 0.48 0.47 0.55 0.56
0.42 0.56 0.52 0.21 0.15 0.19 0.18 0.08 0.04 0.02 0.02 0.01 0.01 0.01 0.01 0.02 0.02 0.03 0.03 0.02 0.02 0.01 0.01 0.01 0.01 0.01 0.01 0.02 0.04 0.05 0.07 0.12 0.19 0.27 0.34 0.42 0.52 0.55 0.55 0.55 0.54 0.56 0.57 0.60
0.46 0.59 0.39 0.23 0.21 0.19 0.13 0.06 0.03 0.02 0.01 0.01 0.01 0.00 0.01 0.01 0.02 0.03 0.03 0.02 0.01 0.01 0.01 0.01 0.01 0.01 0.00 0.00 0.00 0.01 0.03 0.07 0.12 0.16 0.20 0.25 0.34 0.42 0.48 0.53 0.54 0.55 0.60 0.68
0.33 0.33 0.20 0.18 0.17 0.12 0.07 0.04 0.02 0.01 0.01 0.01 0.01 0.00 0.00 0.01 0.01 0.02 0.02 0.02 0.01 0.01 0.01 0.01 0.00 0.00 0.00 0.00 0.00 0.01 0.02 0.04 0.06 0.07 0.08 0.11 0.20 0.29 0.36 0.44 0.50 0.58 0.64 0.73
0.26 0.26 0.16 0.11 0.11 0.07 0.05 0.02 0.01 0.01 0.01 0.01 0.01 0.00 0.00 0.00 0.01 0.01 0.01 0.01 0.01 0.01 0.01 0.01 0.00 0.00 0.01 0.01 0.01 0.01 0.02 0.02 0.03 0.05 0.07 0.09 0.15 0.23 0.28 0.36 0.39 0.44 0.55 0.67
0.26 0.24 0.19 0.09 0.07 0.05 0.03 0.02 0.02 0.01 0.01 0.01 0.01 0.01 0.00 0.00 0.01 0.01 0.01 0.01 0.01 0.01 0.01 0.00 0.00 0.00 0.01 0.03 0.02 0.05 0.07 0.03 0.03 0.05 0.07 0.09 0.12 0.14 0.14 0.17 0.18 0.22 0.29 0.35
0.14 0.13 0.12 0.07 0.05 0.03 0.02 0.02 0.02 0.01 0.00 0.00 0.01 0.01 0.01 0.01 0.01 0.01 0.01 0.01 0.01 0.01 0.01 0.01 0.00 0.00 0.01 0.02 0.06 0.12 0.15 0.11 0.08 0.06 0.07 0.08 0.09 0.12 0.13 0.09 0.07 0.09 0.11 0.18
0.07 0.08 0.08 0.06 0.03 0.02 0.01 0.01 0.01 0.00 0.00 0.01 0.01 0.01 0.01 0.01 0.01 0.01 0.01 0.01 0.01 0.01 0.02 0.01 0.00 0.00 0.00 0.01 0.03 0.03 0.04 0.04 0.06 0.09 0.07 0.06 0.10 0.16 0.22 0.24 0.19 0.11 0.07 0.10
0.04 0.05 0.07 0.05 0.02 0.01 0.01 0.01 0.00 0.00 0.01 0.01 0.00 0.01 0.01 0.01 0.01 0.01 0.01 0.01 0.01 0.02 0.02 0.01 0.01 0.01 0.01 0.01 0.01 0.01 0.02 0.04 0.10 0.12 0.08 0.08 0.14 0.22 0.24 0.24 0.24 0.17 0.10 0.08
0.03 0.03 0.03 0.03 0.02 0.01 0.00 0.00 0.00 0.00 0.00 0.00 0.00 0.00 0.00 0.00 0.01 0.01 0.02 0.02 0.02 0.02 0.02 0.01 0.01 0.01 0.01 0.01 0.02 0.03 0.04 0.04 0.11 0.17 0.12 0.12 0.15 0.16 0.16 0.18 0.17 0.13 0.11 0.10
0.01 0.01 0.02 0.03 0.02 0.01 0.01 0.01 0.00 0.00 0.00 0.00 0.00 0.00 0.00 0.00 0.00 0.01 0.01 0.01 0.02 0.02 0.02 0.02 0.02 0.01 0.01 0.02 0.02 0.05 0.08 0.05 0.06 0.18 0.22 0.19 0.18 0.17 0.19 0.20 0.17 0.13 0.09 0.07
0.01 0.01 0.02 0.03 0.02 0.02 0.01 0.01 0.01 0.01 0.01 0.01 0.01 0.01 0.01 0.01 0.01 0.01 0.01 0.01 0.01 0.02 0.02 0.02 0.03 0.02 0.02 0.02 0.03 0.03 0.05 0.06 0.07 0.17 0.23 0.19 0.17 0.18 0.20 0.19 0.17 0.15 0.12 0.08
0.03 0.03 0.03 0.04 0.03 0.02 0.02 0.01 0.01 0.01 0.01 0.01 0.01 0.01 0.01 0.01 0.01 0.01 0.01 0.01 0.01 0.02 0.02 0.02 0.03 0.03 0.02 0.02 0.03 0.04 0.04 0.05 0.07 0.12 0.13 0.10 0.11 0.15 0.17 0.18 0.17 0.15 0.13 0.12
0.04 0.03 0.02 0.02 0.02 0.01 0.01 0.01 0.01 0.01 0.01 0.01 0.01 0.01 0.01 0.01 0.01 0.01 0.01 0.01 0.02 0.02 0.02 0.03 0.03 0.03 0.03 0.03 0.04 0.05 0.05 0.06 0.07 0.09 0.10 0.12 0.15 0.17 0.16 0.16 0.18 0.18 0.16 0.16
0.03 0.02 0.02 0.01 0.01 0.01 0.01 0.01 0.01 0.01 0.00 0.01 0.01 0.01 0.01 0.01 0.01 0.02 0.03 0.03 0.03 0.03 0.03 0.04 0.04 0.04 0.04 0.05 0.06 0.06 0.07 0.06 0.07 0.09 0.10 0.12 0.14 0.15 0.16 0.17 0.19 0.21 0.22 0.19
0.02 0.02 0.02 0.01 0.01 0.01 0.01 0.01 0.01 0.01 0.01 0.01 0.01 0.02 0.02 0.02 0.03 0.03 0.04 0.04 0.04 0.04 0.04 0.04 0.04 0.05 0.06 0.08 0.07 0.07 0.07 0.06 0.07 0.10 0.13 0.14 0.15 0.16 0.17 0.18 0.20 0.22 0.24 0.25
0.02 0.02 0.03 0.02 0.02 0.02 0.02 0.02 0.02 0.02 0.02 0.02 0.03 0.04 0.05 0.05 0.06 0.06 0.06 0.05 0.05 0.05 0.05 0.05 0.06 0.08 0.10 0.09 0.09 0.08 0.07 0.07 0.08 0.11 0.13 0.14 0.15 0.17 0.18 0.18 0.20 0.22 0.25 0.29
0.04 0.04 0.03 0.04 0.04 0.04 0.03 0.03 0.03 0.03 0.03 0.03 0.04 0.06 0.07 0.07 0.06 0.06 0.06 0.06 0.06 0.07 0.06 0.06 0.08 0.11 0.13 0.10 0.10 0.10 0.09 0.10 0.11 0.11 0.12 0.13 0.16 0.18 0.19 0.22 0.23 0.24 0.26 0.29
0.05 0.05 0.05 0.05 0.06 0.06 0.05 0.04 0.03 0.03 0.03 0.04 0.04 0.04 0.04 0.05 0.05 0.06 0.06 0.07 0.07 0.07 0.07 0.08 0.11 0.13 0.11 0.10 0.11 0.12 0.12 0.13 0.14 0.16 0.17 0.18 0.19 0.21 0.22 0.23 0.26 0.28 0.31 0.33
0.05 0.04 0.04 0.05 0.06 0.07 0.07 0.07 0.06 0.05 0.05 0.04 0.04 0.03 0.03 0.03 0.03 0.04 0.04 0.05 0.06 0.07 0.07 0.07 0.07 0.07 0.07 0.07 0.08 0.09 0.09 0.10 0.12 0.13 0.15 0.17 0.18 0.20 0.22 0.23 0.24 0.28 0.33 0.37
0.06 0.05 0.05 0.05 0.05 0.06 0.07 0.07 0.08 0.09 0.08 0.07 0.06 0.05 0.05 0.05 0.05 0.05 0.04 0.04 0.05 0.05 0.06 0.07 0.07 0.07 0.08 0.08 0.08 0.08 0.08 0.08 0.09 0.11 0.12 0.14 0.15 0.18 0.20 0.22 0.25 0.28 0.33 0.38

GEFSNGP_prec_meanprecacc_168.txt.gz
Total_Precipitation_Accumulation
0.29 0.30 0.41 0.46 0.40 0.39 0.47 0.54 0.69 0.68 0.66 0.54 0.50 0.55 0.58 0.54 0.50 0.47 0.42 0.36 0.36 0.36 0.39 0.38 0.39 0.40 0.40 0.39 0.45 0.52 0.66 0.78 0.83 0.87 0.88 0.85 0.79 0.77 0.81 0.78 0.77 0.92 1.08 1.25
0.19 0.20 0.28 0.35 0.36 0.37 0.37 0.41 0.51 0.58 0.57 0.44 0.40 0.39 0.40 0.37 0.32 0.31 0.32 0.28 0.25 0.25 0.27 0.27 0.25 0.25 0.26 0.33 0.42 0.48 0.56 0.66 0.81 0.88 0.81 0.77 0.70 0.69 0.73 0.71 0.68 0.78 0.93 1.10
0.29 0.24 0.26 0.51 0.52 0.52 0.53 0.47 0.46 0.41 0.33 0.21 0.21 0.23 0.27 0.26 0.27 0.31 0.28 0.22 0.20 0.20 0.21 0.22 0.23 0.26 0.29 0.35 0.44 0.45 0.49 0.61 0.81 0.82 0.71 0.66 0.72 0.76 0.73 0.71 0.72 0.76 0.80 0.82
0.31 0.34 0.62 0.84 0.62 0.59 0.54 0.33 0.19 0.14 0.13 0.12 0.17 0.17 0.16 0.16 0.19 0.23 0.21 0.17 0.14 0.14 0.13 0.14 0.17 0.22 0.24 0.28 0.32 0.36 0.41 0.51 0.66 0.69 0.67 0.70 0.71 0.69 0.65 0.60 0.59 0.63 0.65 0.70
0.34 0.39 0.63 0.65 0.42 0.34 0.34 0.23 0.08 0.07 0.08 0.10 0.13 0.12 0.09 0.09 0.11 0.12 0.12 0.08 0.07 0.07 0.06 0.06 0.06 0.08 0.11 0.13 0.17 0.21 0.28 0.37 0.47 0.51 0.56 0.58 0.57 0.57 0.53 0.50 0.52 0.54 0.58 0.66
0.48 0.60 0.62 0.33 0.17 0.16 0.23 0.27 0.08 0.04 0.04 0.04 0.06 0.10 0.07 0.04 0.05 0.06 0.06 0.05 0.03 0.02 0.02 0.01 0.01 0.02 0.04 0.07 0.10 0.14 0.21 0.28 0.35 0.38 0.42 0.44 0.49 0.52 0.52 0.49 0.47 0.47 0.50 0.54
0.50 0.69 0.56 0.22 0.11 0.12 0.22 0.28 0.09 0.03 0.02 0.02 0.02 0.04 0.03 0.03 0.04 0.04 0.04 0.03 0.02 0.01 0.01 0.01 0.01 0.01 0.02 0.06 0.08 0.09 0.12 0.17 0.23 0.31 0.38 0.46 0.52 0.53 0.56 0.53 0.49 0.48 0.55 0.56
0.43 0.57 0.52 0.21 0.15 0.19 0.19 0.08 0.04 0.02 0.02 0.01 0.01 0.01 0.01 0.02 0.02 0.03 0.03 0.02 0.02 0.01 0.01 0.01 0.01 0.01 0.01 0.02 0.04 0.05 0.07 0.12 0.19 0.27 0.34 0.42 0.52 0.55 0.55 0.55 0.54 0.56 0.57 0.60
0.46 0.59 0.39 0.23 0.21 0.19 0.13 0.06 0.03 0.02 0.01 0.01 0.01 0.00 0.01 0.01 0.02 0.03 0.03 0.02 0.01 0.01 0.01 0.01 0.01 0.01 0.00 0.00 0.00 0.01 0.03 0.07 0.12 0.16 0.20 0.25 0.34 0.42 0.48 0.53 0.54 0.55 0.60 0.68
0.34 0.33 0.20 0.18 0.17 0.12 0.07 0.04 0.02 0.01 0.01 0.01 0.01 0.00 0.00 0.01 0.01 0.02 0.02 0.02 0.02 0.01 0.01 0.01 0.01 0.01 0.01 0.00 0.00 0.01 0.02 0.04 0.06 0.07 0.08 0.11 0.20 0.29 0.36 0.44 0.50 0.58 0.64 0.73
0.26 0.27 0.16 0.11 0.11 0.07 0.05 0.02 0.01 0.01 0.01 0.01 0.01 0.01 0.00 0.00 0.01 0.01 0.01 0.01 0.01 0.01 0.01 0.01 0.01 0.01 0.01 0.01 0.01 0.01 0.02 0.02 0.03 0.05 0.07 0.09 0.15 0.23 0.28 0.36 0.39 0.44 0.55 0.68
0.27 0.24 0.19 0.09 0.07 0.05 0.03 0.02 0.02 0.01 0.01 0.01 0.01 0.01 0.01 0.01 0.01 0.01 0.01 0.01 0.01 0.01 0.01 0.01 0.01 0.01 0.02 0.03 0.02 0.05 0.07 0.03 0.03 0.05 0.07 0.09 0.12 0.14 0.14 0.17 0.18 0.22 0.29 0.35
0.14 0.14 0.12 0.07 0.05 0.03 0.02 0.02 0.02 0.01 0.00 0.00 0.01 0.01 0.01 0.01 0.01 0.01 0.01 0.01 0.02 0.02 0.01 0.01 0.01 0.00 0.01 0.02 0.06 0.12 0.15 0.11 0.08 0.07 0.07 0.08 0.09 0.12 0.13 0.09 0.07 0.09 0.11 0.18
0.07 0.08 0.09 0.06 0.03 0.02 0.01 0.01 0.01 0.00 0.00 0.01 0.01 0.01 0.01 0.01 0.01 0.01 0.01 0.01 0.02 0.02 0.02 0.02 0.01 0.00 0.00 0.01 0.03 0.03 0.04 0.04 0.06 0.09 0.07 0.07 0.10 0.17 0.22 0.25 0.19 0.11 0.07 0.10
0.04 0.05 0.07 0.05 0.03 0.01 0.01 0.01 0.01 0.01 0.01 0.01 0.01 0.01 0.01 0.01 0.01 0.01 0.01 0.01 0.02 0.02 0.02 0.02 0.01 0.01 0.01 0.01 0.01 0.01 0.02 0.04 0.10 0.12 0.08 0.08 0.14 0.22 0.24 0.24 0.24 0.17 0.10 0.08
0.03 0.03 0.03 0.04 0.02 0.01 0.01 0.00 0.00 0.00 0.01 0.01 0.01 0.01 0.01 0.01 0.01 0.01 0.02 0.02 0.02 0.03 0.03 0.02 0.02 0.01 0.01 0.01 0.02 0.03 0.04 0.04 0.11 0.17 0.12 0.12 0.16 0.16 0.16 0.18 0.17 0.13 0.11 0.10
0.01 0.01 0.02 0.03 0.02 0.02 0.01 0.01 0.00 0.00 0.00 0.00 0.00 0.01 0.01 0.01 0.01 0.01 0.02 0.02 0.02 0.03 0.02 0.02 0.02 0.02 0.02 0.02 0.02 0.05 0.08 0.05 0.06 0.18 0.22 0.19 0.18 0.17 0.19 0.21 0.17 0.13 0.09 0.07
0.01 0.02 0.02 0.03 0.03 0.02 0.02 0.01 0.01 0.01 0.01 0.01 0.01 0.01 0.01 0.01 0.01 0.02 0.01 0.01 0.02 0.02 0.02 0.03 0.03 0.02 0.02 0.02 0.03 0.04 0.05 0.06 0.08 0.18 0.23 0.20 0.17 0.18 0.20 0.19 0.18 0.15 0.12 0.08
0.03 0.03 0.04 0.04 0.03 0.03 0.02 0.02 0.02 0.02 0.01 0.01 0.01 0.01 0.01 0.01 0.02 0.02 0.01 0.01 0.02 0.02 0.02 0.03 0.03 0.03 0.02 0.02 0.03 0.04 0.05 0.06 0.07 0.12 0.13 0.11 0.12 0.15 0.17 0.18 0.17 0.16 0.14 0.13
0.04 0.03 0.02 0.02 0.02 0.01 0.02 0.02 0.02 0.02 0.02 0.01 0.01 0.01 0.01 0.01 0.01 0.01 0.01 0.02 0.02 0.03 0.02 0.03 0.03 0.03 0.03 0.03 0.04 0.05 0.06 0.06 0.07 0.09 0.10 0.12 0.15 0.17 0.16 0.16 0.18 0.18 0.16 0.16
0.03 0.02 0.02 0.02 0.01 0.01 0.01 0.01 0.01 0.02 0.02 0.02 0.01 0.01 0.01 0.01 0.01 0.02 0.03 0.04 0.03 0.03 0.03 0.04 0.04 0.04 0.04 0.05 0.06 0.06 0.07 0.06 0.07 0.09 0.10 0.12 0.14 0.15 0.16 0.17 0.19 0.21 0.22 0.20
0.02 0.02 0.02 0.01 0.01 0.01 0.01 0.01 0.01 0.01 0.02 0.03 0.03 0.03 0.03 0.03 0.03 0.04 0.04 0.04 0.04 0.04 0.04 0.05 0.05 0.05 0.06 0.08 0.08 0.07 0.07 0.06 0.07 0.10 0.13 0.14 0.15 0.16 0.17 0.18 0.20 0.22 0.24 0.25
0.02 0.02 0.03 0.02 0.02 0.02 0.02 0.02 0.02 0.02 0.02 0.03 0.05 0.06 0.06 0.05 0.06 0.06 0.06 0.05 0.05 0.06 0.06 0.05 0.06 0.08 0.10 0.09 0.09 0.08 0.07 0.07 0.08 0.11 0.13 0.14 0.15 0.17 0.18 0.18 0.20 0.22 0.25 0.29
0.04 0.04 0.03 0.04 0.04 0.04 0.03 0.03 0.03 0.03 0.03 0.03 0.05 0.07 0.09 0.08 0.07 0.06 0.06 0.06 0.06 0.07 0.06 0.06 0.08 0.11 0.13 0.10 0.10 0.10 0.09 0.10 0.11 0.11 0.12 0.13 0.16 0.18 0.20 0.22 0.24 0.24 0.27 0.30
0.05 0.05 0.05 0.05 0.06 0.06 0.05 0.04 0.03 0.03 0.03 0.04 0.04 0.04 0.06 0.07 0.07 0.07 0.07 0.07 0.07 0.07 0.07 0.08 0.11 0.13 0.11 0.10 0.11 0.12 0.12 0.13 0.14 0.16 0.17 0.18 0.19 0.21 0.22 0.24 0.26 0.29 0.32 0.34
0.05 0.05 0.05 0.05 0.06 0.07 0.07 0.07 0.06 0.05 0.05 0.04 0.04 0.04 0.04 0.04 0.05 0.05 0.05 0.05 0.06 0.07 0.07 0.07 0.07 0.07 0.07 0.07 0.09 0.09 0.09 0.10 0.12 0.13 0.15 0.17 0.18 0.21 0.22 0.23 0.25 0.29 0.34 0.38
0.06 0.06 0.05 0.05 0.05 0.06 0.07 0.08 0.08 0.09 0.09 0.07 0.07 0.05 0.05 0.05 0.05 0.05 0.05 0.05 0.05 0.05 0.06 0.07 0.07 0.07 0.08 0.08 0.08 0.08 0.08 0.09 0.09 0.11 0.12 0.14 0.16 0.18 0.20 0.23 0.25 0.29 0.34 0.39

GEFSNGP_prec_meanprecacc_174.txt.gz
Total_Precipitation_Accumulation
0.30 0.31 0.42 0.47 0.41 0.39 0.47 0.54 0.69 0.68 0.66 0.54 0.50 0.55 0.58 0.55 0.50 0.48 0.42 0.36 0.37 0.36 0.39 0.38 0.39 0.41 0.41 0.40 0.46 0.54 0.68 0.79 0.84 0.87 0.89 0.85 0.79 0.77 0.81 0.78 0.77 0.92 1.09 1.25
0.20 0.21 0.28 0.35 0.36 0.37 0.37 0.41 0.52 0.58 0.57 0.44 0.41 0.39 0.40 0.38 0.32 0.31 0.32 0.28 0.25 0.26 0.28 0.27 0.25 0.26 0.27 0.34 0.43 0.49 0.57 0.68 0.84 0.89 0.81 0.77 0.70 0.69 0.73 0.71 0.68 0.78 0.93 1.10
0.30 0.25 0.27 0.51 0.52 0.52 0.53 0.47 0.46 0.42 0.33 0.21 0.21 0.24 0.27 0.27 0.28 0.31 0.28 0.22 0.20 0.20 0.21 0.22 0.23 0.27 0.29 0.36 0.45 0.45 0.50 0.62 0.82 0.83 0.71 0.66 0.72 0.76 0.73 0.71 0.72 0.76 0.80 0.83
0.33 0.36 0.64 0.85 0.62 0.59 0.54 0.33 0.19 0.14 0.13 0.12 0.18 0.17 0.16 0.17 0.20 0.23 0.21 0.17 0.15 0.14 0.13 0.15 0.18 0.22 0.25 0.28 0.33 0.36 0.41 0.51 0.67 0.69 0.67 0.71 0.71 0.69 0.65 0.60 0.59 0.63 0.65 0.70
0.37 0.42 0.65 0.66 0.42 0.34 0.34 0.23 0.08 0.07 0.08 0.10 0.13 0.12 0.09 0.10 0.11 0.12 0.12 0.08 0.07 0.07 0.06 0.06 0.06 0.08 0.11 0.13 0.17 0.21 0.28 0.38 0.47 0.51 0.56 0.58 0.57 0.57 0.53 0.50 0.52 0.54 0.58 0.66
0.50 0.61 0.64 0.34 0.18 0.16 0.23 0.27 0.08 0.04 0.04 0.04 0.06 0.10 0.07 0.05 0.06 0.07 0.06 0.05 0.03 0.02 0.02 0.01 0.01 0.02 0.04 0.07 0.10 0.14 0.21 0.28 0.35 0.38 0.42 0.44 0.49 0.52 0.52 0.49 0.47 0.47 0.50 0.55
0.51 0.71 0.57 0.23 0.11 0.12 0.22 0.28 0.09 0.03 0.02 0.02 0.02 0.04 0.03 0.04 0.05 0.05 0.04 0.03 0.02 0.01 0.01 0.01 0.01 0.01 0.03 0.06 0.08 0.09 0.12 0.17 0.23 0.31 0.38 0.46 0.52 0.53 0.56 0.53 0.49 0.48 0.55 0.56
0.44 0.58 0.53 0.21 0.16 0.19 0.19 0.08 0.04 0.02 0.02 0.01 0.01 0.01 0.01 0.02 0.02 0.04 0.03 0.02 0.02 0.02 0.01 0.01 0.01 0.02 0.01 0.03 0.04 0.05 0.07 0.12 0.19 0.27 0.34 0.42 0.52 0.55 0.55 0.55 0.55 0.56 0.57 0.60
0.47 0.60 0.40 0.24 0.21 0.19 0.13 0.07 0.03 0.02 0.01 0.01 0.01 0.00 0.01 0.01 0.02 0.03 0.03 0.02 0.02 0.02 0.01 0.01 0.01 0.01 0.01 0.01 0.01 0.01 0.03 0.07 0.12 0.16 0.20 0.26 0.34 0.42 0.48 0.53 0.55 0.56 0.60 0.68
0.34 0.33 0.20 0.18 0.17 0.12 0.07 0.04 0.02 0.01 0.01 0.01 0.01 0.00 0.00 0.01 0.01 0.02 0.02 0.02 0.02 0.01 0.01 0.01 0.01 0.01 0.01 0.01 0.01 0.01 0.02 0.04 0.06 0.08 0.08 0.11 0.20 0.29 0.36 0.44 0.50 0.58 0.64 0.73
0.27 0.27 0.16 0.11 0.11 0.07 0.05 0.02 0.01 0.01 0.01 0.01 0.01 0.01 0.01 0.01 0.01 0.01 0.01 0.01 0.01 0.01 0.01 0.01 0.01 0.01 0.01 0.02 0.01 0.01 0.02 0.02 0.03 0.05 0.07 0.09 0.15 0.23 0.28 0.36 0.39 0.44 0.55 0.68
0.28 0.25 0.20 0.09 0.07 0.05 0.03 0.02 0.02 0.01 0.01 0.01 0.01 0.01 0.01 0.01 0.01 0.01 0.01 0.01 0.01 0.01 0.01 0.01 0.01 0.01 0.02 0.04 0.03 0.05 0.07 0.03 0.03 0.05 0.07 0.09 0.12 0.14 0.14 0.17 0.18 0.22 0.29 0.35
0.15 0.14 0.12 0.07 0.05 0.03 0.02 0.02 0.02 0.01 0.00 0.00 0.01 0.01 0.01 0.01 0.01 0.01 0.01 0.01 0.02 0.02 0.02 0.01 0.01 0.01 0.01 0.03 0.06 0.13 0.15 0.12 0.08 0.07 0.07 0.08 0.10 0.12 0.13 0.09 0.07 0.09 0.11 0.18
0.07 0.08 0.09 0.06 0.04 0.02 0.01 0.01 0.01 0.00 0.00 0.01 0.01 0.01 0.01 0.01 0.01 0.01 0.01 0.01 0.02 0.03 0.03 0.02 0.01 0.01 0.01 0.01 0.03 0.04 0.04 0.05 0.06 0.09 0.08 0.07 0.10 0.17 0.22 0.25 0.19 0.11 0.07 0.10
0.04 0.05 0.07 0.06 0.03 0.01 0.01 0.01 0.01 0.01 0.01 0.01 0.01 0.01 0.02 0.01 0.01 0.01 0.02 0.02 0.02 0.03 0.03 0.02 0.02 0.01 0.01 0.01 0.01 0.01 0.02 0.04 0.10 0.12 0.08 0.08 0.14 0.22 0.25 0.25 0.24 0.17 0.10 0.08
0.03 0.03 0.04 0.04 0.02 0.01 0.01 0.01 0.01 0.01 0.01 0.01 0.01 0.01 0.01 0.01 0.01 0.01 0.02 0.02 0.03 0.03 0.03 0.02 0.02 0.01 0.01 0.01 0.02 0.03 0.04 0.04 0.11 0.17 0.12 0.12 0.16 0.16 0.16 0.19 0.17 0.14 0.12 0.10
0.01 0.02 0.02 0.03 0.02 0.02 0.02 0.01 0.01 0.01 0.01 0.01 0.01 0.01 0.01 0.01 0.01 0.01 0.02 0.02 0.02 0.04 0.03 0.03 0.03 0.02 0.02 0.02 0.03 0.05 0.08 0.05 0.06 0.19 0.22 0.19 0.19 0.18 0.19 0.21 0.18 0.14 0.10 0.07
0.01 0.02 0.02 0.03 0.03 0.03 0.02 0.02 0.02 0.01 0.01 0.01 0.01 0.01 0.01 0.01 0.01 0.02 0.02 0.01 0.02 0.03 0.03 0.04 0.04 0.03 0.02 0.03 0.03 0.04 0.05 0.06 0.08 0.18 0.23 0.20 0.17 0.18 0.20 0.19 0.18 0.16 0.12 0.09
0.03 0.04 0.04 0.04 0.03 0.03 0.02 0.02 0.02 0.02 0.02 0.02 0.01 0.01 0.01 0.01 0.02 0.02 0.02 0.01 0.02 0.03 0.03 0.03 0.04 0.04 0.02 0.02 0.04 0.04 0.05 0.06 0.07 0.12 0.14 0.11 0.12 0.15 0.17 0.18 0.17 0.16 0.14 0.13
0.04 0.03 0.02 0.02 0.02 0.01 0.02 0.02 0.02 0.02 0.02 0.02 0.02 0.02 0.01 0.01 0.01 0.01 0.02 0.03 0.03 0.03 0.03 0.04 0.04 0.03 0.03 0.03 0.05 0.06 0.06 0.06 0.07 0.09 0.10 0.12 0.15 0.17 0.16 0.16 0.18 0.18 0.16 0.16
0.03 0.02 0.02 0.02 0.01 0.01 0.01 0.01 0.01 0.02 0.02 0.02 0.02 0.02 0.02 0.02 0.02 0.03 0.04 0.05 0.04 0.03 0.03 0.04 0.05 0.05 0.05 0.06 0.07 0.07 0.07 0.07 0.08 0.09 0.10 0.12 0.14 0.16 0.16 0.17 0.19 0.21 0.22 0.20
0.02 0.02 0.02 0.01 0.01 0.01 0.01 0.01 0.01 0.01 0.02 0.03 0.04 0.03 0.03 0.03 0.04 0.04 0.05 0.05 0.05 0.05 0.05 0.05 0.06 0.06 0.07 0.09 0.08 0.08 0.07 0.07 0.08 0.11 0.13 0.15 0.15 0.16 0.17 0.18 0.20 0.22 0.24 0.25
0.02 0.02 0.03 0.02 0.02 0.02 0.02 0.02 0.02 0.02 0.02 0.04 0.05 0.06 0.07 0.06 0.06 0.06 0.06 0.06 0.06 0.07 0.07 0.06 0.07 0.09 0.12 0.11 0.10 0.09 0.08 0.07 0.09 0.11 0.13 0.14 0.16 0.17 0.18 0.19 0.20 0.22 0.25 0.29
0.04 0.04 0.03 0.04 0.04 0.04 0.03 0.03 0.03 0.03 0.03 0.03 0.05 0.08 0.09 0.09 0.08 0.07 0.07 0.07 0.08 0.08 0.07 0.07 0.09 0.12 0.14 0.11 0.11 0.10 0.10 0.10 0.11 0.12 0.12 0.14 0.16 0.18 0.20 0.22 0.24 0.25 0.27 0.30
0.05 0.05 0.05 0.05 0.06 0.06 0.05 0.04 0.03 0.03 0.03 0.04 0.04 0.05 0.07 0.08 0.08 0.08 0.08 0.08 0.09 0.09 0.08 0.09 0.12 0.14 0.12 0.10 0.12 0.13 0.13 0.13 0.15 0.17 0.17 0.18 0.20 0.21 0.22 0.24 0.26 0.29 0.32 0.34
0.05 0.05 0.05 0.05 0.06 0.07 0.07 0.07 0.06 0.05 0.05 0.04 0.04 0.04 0.04 0.05 0.07 0.07 0.07 0.07 0.07 0.08 0.08 0.08 0.08 0.08 0.07 0.08 0.09 0.09 0.10 0.10 0.12 0.14 0.15 0.17 0.18 0.21 0.23 0.24 0.25 0.29 0.35 0.38
0.07 0.06 0.05 0.05 0.05 0.06 0.08 0.08 0.08 0.09 0.09 0.08 0.07 0.06 0.06 0.06 0.07 0.07 0.07 0.07 0.07 0.07 0.07 0.08 0.07 0.08 0.08 0.08 0.08 0.08 0.08 0.09 0.10 0.11 0.13 0.14 0.16 0.18 0.20 0.23 0.26 0.30 0.35 0.41

GEFSNGP_prec_meanprecacc_180.txt.gz
Total_Precipitation_Accumulation
0.31 0.32 0.43 0.48 0.41 0.40 0.48 0.55 0.70 0.69 0.67 0.55 0.51 0.55 0.59 0.56 0.51 0.48 0.42 0.37 0.37 0.37 0.39 0.38 0.39 0.41 0.41 0.41 0.47 0.54 0.68 0.80 0.85 0.87 0.89 0.85 0.79 0.77 0.81 0.78 0.77 0.92 1.09 1.25
0.21 0.22 0.29 0.36 0.37 0.37 0.37 0.42 0.52 0.59 0.58 0.45 0.41 0.40 0.41 0.39 0.32 0.32 0.32 0.28 0.26 0.26 0.28 0.27 0.26 0.26 0.27 0.35 0.44 0.49 0.58 0.69 0.84 0.89 0.81 0.77 0.70 0.69 0.73 0.71 0.68 0.78 0.93 1.10
0.31 0.26 0.28 0.52 0.53 0.53 0.54 0.48 0.48 0.43 0.34 0.22 0.22 0.24 0.28 0.28 0.28 0.31 0.28 0.23 0.21 0.21 0.21 0.22 0.24 0.27 0.30 0.36 0.46 0.45 0.52 0.65 0.84 0.83 0.72 0.66 0.72 0.76 0.73 0.71 0.72 0.76 0.80 0.83
0.34 0.37 0.65 0.86 0.62 0.60 0.55 0.35 0.21 0.15 0.13 0.12 0.18 0.17 0.16 0.18 0.20 0.23 0.21 0.18 0.16 0.15 0.14 0.15 0.18 0.23 0.25 0.29 0.33 0.36 0.42 0.53 0.68 0.69 0.67 0.71 0.71 0.69 0.65 0.60 0.59 0.63 0.65 0.70
0.38 0.42 0.65 0.66 0.42 0.35 0.35 0.24 0.10 0.07 0.09 0.10 0.13 0.12 0.10 0.11 0.12 0.13 0.12 0.09 0.08 0.08 0.07 0.06 0.06 0.09 0.12 0.14 0.17 0.21 0.29 0.38 0.47 0.51 0.56 0.58 0.57 0.57 0.53 0.50 0.52 0.54 0.58 0.66
0.51 0.62 0.64 0.34 0.18 0.16 0.23 0.29 0.09 0.05 0.05 0.05 0.06 0.10 0.07 0.06 0.06 0.07 0.07 0.05 0.03 0.03 0.02 0.01 0.01 0.03 0.05 0.08 0.11 0.14 0.21 0.28 0.35 0.38 0.42 0.44 0.49 0.52 0.52 0.49 0.47 0.47 0.50 0.55
0.52 0.71 0.58 0.23 0.12 0.12 0.23 0.30 0.10 0.04 0.02 0.02 0.03 0.04 0.04 0.05 0.05 0.05 0.05 0.04 0.03 0.02 0.01 0.01 0.01 0.02 0.03 0.06 0.09 0.09 0.12 0.17 0.23 0.31 0.38 0.46 0.52 0.53 0.56 0.53 0.49 0.48 0.55 0.56
0.45 0.58 0.54 0.22 0.16 0.19 0.19 0.10 0.05 0.03 0.02 0.02 0.01 0.01 0.02 0.02 0.03 0.04 0.04 0.03 0.03 0.02 0.02 0.02 0.02 0.02 0.02 0.04 0.05 0.06 0.08 0.13 0.19 0.27 0.34 0.43 0.52 0.55 0.55 0.55 0.55 0.56 0.57 0.60
0.48 0.60 0.41 0.25 0.22 0.20 0.13 0.08 0.04 0.02 0.02 0.01 0.01 0.00 0.01 0.02 0.03 0.03 0.04 0.04 0.03 0.02 0.02 0.02 0.02 0.02 0.02 0.02 0.02 0.02 0.04 0.08 0.13 0.17 0.21 0.26 0.34 0.42 0.48 0.53 0.55 0.56 0.60 0.68
0.35 0.35 0.21 0.19 0.17 0.13 0.08 0.05 0.02 0.01 0.01 0.01 0.01 0.01 0.00 0.01 0.01 0.02 0.03 0.03 0.03 0.02 0.02 0.01 0.01 0.02 0.02 0.01 0.01 0.01 0.03 0.04 0.07 0.08 0.09 0.11 0.21 0.29 0.36 0.44 0.50 0.58 0.64 0.73
0.28 0.28 0.17 0.12 0.11 0.08 0.05 0.02 0.01 0.01 0.01 0.01 0.01 0.01 0.01 0.01 0.01 0.02 0.02 0.02 0.02 0.02 0.02 0.01 0.01 0.01 0.01 0.02 0.02 0.02 0.02 0.02 0.04 0.05 0.07 0.09 0.15 0.24 0.28 0.36 0.39 0.44 0.55 0.68
0.29 0.26 0.21 0.10 0.08 0.05 0.03 0.02 0.02 0.01 0.01 0.01 0.01 0.01 0.01 0.01 0.01 0.01 0.01 0.01 0.02 0.02 0.02 0.01 0.01 0.01 0.02 0.04 0.03 0.06 0.07 0.04 0.04 0.05 0.07 0.10 0.13 0.14 0.14 0.18 0.18 0.22 0.29 0.36
0.15 0.15 0.13 0.07 0.05 0.04 0.03 0.02 0.02 0.01 0.01 0.01 0.01 0.01 0.01 0.01 0.01 0.01 0.01 0.01 0.03 0.03 0.03 0.02 0.01 0.01 0.01 0.03 0.07 0.13 0.15 0.12 0.08 0.07 0.07 0.08 0.10 0.12 0.13 0.09 0.07 0.09 0.11 0.18
0.07 0.08 0.09 0.07 0.04 0.03 0.02 0.01 0.01 0.01 0.01 0.01 0.01 0.01 0.02 0.02 0.02 0.01 0.01 0.02 0.03 0.03 0.04 0.03 0.01 0.01 0.01 0.02 0.03 0.04 0.05 0.05 0.06 0.09 0.08 0.07 0.11 0.17 0.22 0.25 0.19 0.11 0.07 0.11
0.04 0.05 0.07 0.06 0.03 0.03 0.03 0.02 0.02 0.01 0.01 0.01 0.01 0.01 0.02 0.01 0.02 0.02 0.02 0.02 0.03 0.03 0.03 0.03 0.02 0.02 0.02 0.02 0.02 0.02 0.02 0.05 0.11 0.13 0.08 0.09 0.15 0.22 0.25 0.25 0.24 0.17 0.10 0.08
0.03 0.03 0.04 0.04 0.03 0.02 0.02 0.02 0.02 0.02 0.02 0.02 0.02 0.01 0.02 0.02 0.02 0.02 0.02 0.03 0.03 0.04 0.04 0.03 0.03 0.03 0.02 0.02 0.02 0.03 0.04 0.05 0.12 0.18 0.12 0.13 0.16 0.16 0.16 0.19 0.17 0.14 0.12 0.10
0.01 0.02 0.02 0.03 0.03 0.02 0.02 0.02 0.02 0.02 0.02 0.02 0.02 0.02 0.01 0.01 0.01 0.02 0.02 0.03 0.03 0.04 0.04 0.03 0.03 0.03 0.03 0.03 0.03 0.05 0.08 0.06 0.07 0.19 0.22 0.19 0.19 0.18 0.19 0.21 0.18 0.14 0.10 0.07
0.01 0.02 0.02 0.03 0.03 0.03 0.03 0.03 0.02 0.02 0.02 0.02 0.02 0.02 0.02 0.01 0.02 0.02 0.02 0.02 0.02 0.03 0.04 0.05 0.05 0.04 0.03 0.03 0.03 0.04 0.05 0.06 0.08 0.18 0.23 0.20 0.17 0.18 0.20 0.20 0.18 0.16 0.12 0.09
0.03 0.04 0.04 0.04 0.03 0.03 0.02 0.02 0.02 0.02 0.02 0.02 0.02 0.02 0.02 0.02 0.02 0.02 0.02 0.02 0.02 0.03 0.03 0.04 0.05 0.04 0.03 0.03 0.04 0.05 0.05 0.06 0.07 0.12 0.14 0.11 0.12 0.16 0.17 0.18 0.17 0.16 0.14 0.13
0.04 0.03 0.02 0.02 0.02 0.01 0.02 0.02 0.02 0.02 0.02 0.02 0.02 0.02 0.02 0.01 0.01 0.02 0.02 0.03 0.03 0.04 0.04 0.04 0.04 0.04 0.04 0.04 0.05 0.06 0.06 0.06 0.07 0.09 0.10 0.12 0.16 0.17 0.17 0.16 0.18 0.18 0.16 0.16
0.03 0.02 0.02 0.02 0.01 0.01 0.01 0.01 0.01 0.02 0.02 0.02 0.02 0.02 0.02 0.02 0.02 0.03 0.04 0.05 0.04 0.04 0.04 0.05 0.05 0.05 0.05 0.06 0.07 0.07 0.08 0.07 0.08 0.09 0.11 0.13 0.14 0.16 0.17 0.18 0.19 0.22 0.22 0.20
0.02 0.02 0.02 0.01 0.01 0.01 0.01 0.01 0.01 0.01 0.02 0.03 0.04 0.03 0.03 0.04 0.04 0.05 0.06 0.06 0.05 0.05 0.05 0.05 0.06 0.06 0.07 0.09 0.09 0.08 0.08 0.07 0.08 0.11 0.13 0.15 0.16 0.17 0.17 0.18 0.20 0.22 0.24 0.25
0.02 0.02 0.03 0.02 0.02 0.02 0.02 0.02 0.02 0.02 0.02 0.04 0.05 0.06 0.07 0.06 0.06 0.07 0.07 0.07 0.06 0.07 0.07 0.07 0.07 0.09 0.12 0.11 0.10 0.09 0.08 0.08 0.09 0.11 0.13 0.15 0.16 0.18 0.19 0.19 0.21 0.22 0.26 0.30
0.04 0.04 0.04 0.04 0.04 0.04 0.04 0.03 0.03 0.03 0.03 0.03 0.05 0.08 0.10 0.10 0.08 0.07 0.07 0.08 0.09 0.09 0.08 0.08 0.09 0.13 0.15 0.12 0.12 0.11 0.11 0.11 0.12 0.12 0.13 0.14 0.17 0.19 0.21 0.23 0.25 0.26 0.28 0.31
0.05 0.05 0.05 0.06 0.06 0.06 0.05 0.04 0.03 0.03 0.03 0.04 0.04 0.05 0.07 0.08 0.09 0.09 0.09 0.09 0.10 0.10 0.09 0.09 0.13 0.15 0.13 0.12 0.13 0.14 0.14 0.14 0.16 0.17 0.17 0.18 0.20 0.22 0.23 0.24 0.27 0.30 0.33 0.35
0.05 0.05 0.05 0.05 0.06 0.07 0.07 0.07 0.06 0.05 0.05 0.04 0.04 0.04 0.05 0.05 0.07 0.07 0.07 0.07 0.08 0.09 0.09 0.09 0.09 0.09 0.08 0.08 0.10 0.10 0.11 0.11 0.13 0.14 0.16 0.18 0.19 0.21 0.23 0.24 0.25 0.30 0.35 0.39
0.07 0.06 0.06 0.05 0.06 0.07 0.08 0.08 0.08 0.09 0.09 0.08 0.07 0.06 0.06 0.06 0.07 0.08 0.08 0.07 0.07 0.08 0.09 0.10 0.10 0.10 0.09 0.09 0.09 0.09 0.09 0.10 0.11 0.13 0.14 0.15 0.16 0.18 0.21 0.23 0.26 0.30 0.36 0.41

GEFSNGP_prec_meanprecacc_186.txt.gz
Total_Precipitation_Accumulation
0.31 0.33 0.43 0.48 0.41 0.41 0.49 0.56 0.71 0.69 0.67 0.55 0.51 0.55 0.59 0.56 0.51 0.48 0.42 0.37 0.37 0.37 0.39 0.39 0.40 0.41 0.42 0.41 0.48 0.55 0.69 0.80 0.85 0.87 0.89 0.85 0.79 0.77 0.81 0.78 0.77 0.92 1.09 1.25
0.21 0.22 0.29 0.36 0.37 0.38 0.38 0.42 0.53 0.59 0.58 0.45 0.41 0.40 0.41 0.39 0.32 0.32 0.32 0.28 0.26 0.26 0.28 0.27 0.26 0.27 0.28 0.35 0.44 0.50 0.58 0.70 0.85 0.89 0.81 0.77 0.70 0.69 0.73 0.71 0.68 0.78 0.93 1.10
0.31 0.26 0.28 0.52 0.53 0.53 0.55 0.49 0.49 0.43 0.34 0.22 0.22 0.24 0.28 0.28 0.28 0.31 0.28 0.23 0.21 0.21 0.21 0.22 0.24 0.27 0.30 0.37 0.46 0.46 0.53 0.66 0.85 0.84 0.72 0.66 0.72 0.76 0.73 0.71 0.72 0.76 0.80 0.83
0.35 0.37 0.66 0.86 0.62 0.60 0.56 0.35 0.21 0.15 0.13 0.13 0.18 0.18 0.17 0.18 0.21 0.23 0.22 0.18 0.16 0.15 0.14 0.15 0.18 0.23 0.25 0.29 0.33 0.37 0.43 0.53 0.69 0.70 0.68 0.71 0.71 0.69 0.65 0.60 0.59 0.63 0.65 0.70
0.39 0.43 0.66 0.66 0.43 0.35 0.35 0.25 0.10 0.08 0.09 0.11 0.13 0.12 0.10 0.11 0.13 0.13 0.13 0.09 0.08 0.08 0.07 0.07 0.07 0.09 0.12 0.14 0.17 0.22 0.29 0.38 0.48 0.52 0.56 0.58 0.57 0.57 0.53 0.50 0.52 0.54 0.58 0.66
0.52 0.63 0.65 0.35 0.18 0.17 0.24 0.30 0.10 0.05 0.05 0.05 0.06 0.10 0.08 0.06 0.07 0.08 0.07 0.06 0.04 0.03 0.03 0.02 0.02 0.03 0.05 0.08 0.11 0.15 0.21 0.28 0.36 0.39 0.43 0.44 0.49 0.52 0.52 0.49 0.47 0.48 0.51 0.55
0.53 0.73 0.59 0.24 0.12 0.12 0.24 0.31 0.11 0.04 0.02 0.02 0.03 0.05 0.04 0.05 0.05 0.06 0.05 0.04 0.03 0.02 0.02 0.01 0.02 0.03 0.03 0.07 0.09 0.10 0.13 0.18 0.24 0.32 0.39 0.46 0.53 0.54 0.56 0.54 0.49 0.48 0.55 0.57
0.46 0.59 0.55 0.23 0.16 0.20 0.21 0.11 0.06 0.03 0.02 0.02 0.02 0.02 0.02 0.03 0.03 0.05 0.05 0.04 0.03 0.03 0.03 0.02 0.03 0.03 0.03 0.04 0.06 0.07 0.09 0.14 0.20 0.28 0.35 0.43 0.53 0.56 0.56 0.56 0.55 0.56 0.58 0.61
0.48 0.61 0.42 0.25 0.22 0.21 0.15 0.10 0.05 0.02 0.02 0.02 0.01 0.01 0.01 0.02 0.03 0.04 0.04 0.04 0.04 0.03 0.03 0.02 0.02 0.03 0.02 0.03 0.03 0.04 0.06 0.09 0.14 0.18 0.22 0.27 0.35 0.43 0.49 0.53 0.55 0.56 0.60 0.68
0.36 0.35 0.22 0.20 0.18 0.14 0.09 0.07 0.03 0.01 0.01 0.01 0.01 0.01 0.01 0.01 0.02 0.02 0.03 0.03 0.04 0.03 0.03 0.02 0.02 0.02 0.02 0.02 0.02 0.02 0.04 0.06 0.08 0.09 0.09 0.12 0.21 0.30 0.36 0.44 0.50 0.58 0.65 0.73
0.28 0.28 0.17 0.12 0.11 0.08 0.07 0.05 0.02 0.01 0.01 0.01 0.01 0.01 0.01 0.01 0.01 0.02 0.03 0.02 0.03 0.02 0.03 0.02 0.02 0.02 0.02 0.03 0.03 0.03 0.03 0.04 0.05 0.06 0.08 0.10 0.16 0.24 0.28 0.36 0.39 0.44 0.55 0.68
0.29 0.26 0.21 0.10 0.08 0.06 0.06 0.04 0.03 0.01 0.01 0.01 0.01 0.01 0.01 0.01 0.01 0.02 0.02 0.03 0.03 0.03 0.03 0.03 0.02 0.02 0.03 0.05 0.05 0.07 0.09 0.05 0.05 0.06 0.08 0.10 0.13 0.15 0.15 0.18 0.19 0.23 0.29 0.36
0.15 0.15 0.13 0.07 0.05 0.04 0.05 0.04 0.02 0.01 0.01 0.01 0.01 0.01 0.01 0.02 0.02 0.02 0.02 0.03 0.04 0.04 0.04 0.03 0.02 0.01 0.02 0.04 0.08 0.15 0.18 0.14 0.10 0.08 0.08 0.09 0.10 0.12 0.13 0.10 0.08 0.09 0.12 0.18
0.07 0.08 0.09 0.07 0.04 0.04 0.04 0.03 0.01 0.01 0.01 0.01 0.02 0.02 0.02 0.02 0.02 0.02 0.02 0.03 0.05 0.05 0.05 0.03 0.02 0.02 0.02 0.02 0.04 0.05 0.06 0.08 0.08 0.11 0.09 0.09 0.11 0.18 0.23 0.26 0.20 0.12 0.08 0.11
0.04 0.05 0.07 0.06 0.03 0.03 0.04 0.02 0.02 0.01 0.02 0.02 0.02 0.02 0.02 0.02 0.02 0.03 0.03 0.03 0.04 0.05 0.04 0.04 0.03 0.03 0.03 0.02 0.02 0.02 0.03 0.06 0.12 0.14 0.10 0.10 0.16 0.23 0.26 0.26 0.25 0.18 0.11 0.08
0.03 0.03 0.04 0.04 0.03 0.02 0.02 0.02 0.02 0.02 0.02 0.02 0.02 0.02 0.02 0.02 0.02 0.02 0.02 0.03 0.03 0.04 0.04 0.03 0.03 0.03 0.03 0.02 0.02 0.03 0.05 0.06 0.13 0.19 0.13 0.13 0.17 0.17 0.17 0.19 0.18 0.14 0.12 0.11
0.01 0.02 0.02 0.03 0.03 0.02 0.02 0.02 0.02 0.02 0.02 0.02 0.02 0.02 0.02 0.02 0.02 0.02 0.02 0.03 0.03 0.04 0.04 0.03 0.04 0.04 0.03 0.03 0.03 0.06 0.09 0.06 0.08 0.19 0.23 0.20 0.19 0.18 0.20 0.22 0.18 0.14 0.10 0.08
0.01 0.02 0.02 0.03 0.03 0.03 0.03 0.03 0.03 0.02 0.02 0.02 0.03 0.02 0.02 0.02 0.02 0.02 0.02 0.02 0.02 0.03 0.04 0.05 0.06 0.05 0.04 0.03 0.04 0.04 0.05 0.06 0.08 0.18 0.24 0.20 0.17 0.19 0.20 0.20 0.18 0.16 0.13 0.09
0.03 0.04 0.04 0.04 0.03 0.03 0.02 0.02 0.02 0.02 0.02 0.02 0.03 0.03 0.03 0.02 0.02 0.02 0.02 0.02 0.02 0.03 0.04 0.05 0.06 0.05 0.03 0.03 0.04 0.05 0.05 0.06 0.08 0.12 0.14 0.11 0.12 0.16 0.18 0.18 0.18 0.16 0.14 0.13
0.04 0.03 0.02 0.02 0.02 0.01 0.02 0.02 0.02 0.02 0.03 0.02 0.02 0.03 0.02 0.02 0.02 0.02 0.03 0.04 0.04 0.05 0.05 0.06 0.05 0.05 0.04 0.04 0.06 0.06 0.06 0.07 0.08 0.10 0.11 0.13 0.16 0.18 0.17 0.17 0.18 0.18 0.17 0.16
0.03 0.02 0.02 0.02 0.01 0.01 0.01 0.01 0.01 0.02 0.02 0.02 0.02 0.02 0.03 0.02 0.02 0.04 0.05 0.06 0.05 0.05 0.05 0.06 0.06 0.06 0.05 0.06 0.07 0.07 0.08 0.07 0.08 0.10 0.11 0.13 0.14 0.16 0.17 0.18 0.20 0.22 0.23 0.20
0.03 0.02 0.02 0.02 0.01 0.01 0.01 0.01 0.01 0.01 0.02 0.03 0.04 0.03 0.03 0.04 0.04 0.05 0.06 0.06 0.05 0.06 0.06 0.06 0.06 0.07 0.08 0.10 0.09 0.09 0.08 0.08 0.09 0.12 0.14 0.15 0.16 0.17 0.18 0.19 0.21 0.23 0.25 0.26
0.02 0.03 0.03 0.02 0.02 0.02 0.02 0.02 0.02 0.02 0.02 0.04 0.05 0.07 0.07 0.06 0.07 0.07 0.08 0.07 0.07 0.08 0.07 0.07 0.08 0.10 0.13 0.11 0.11 0.10 0.09 0.09 0.10 0.12 0.14 0.15 0.16 0.18 0.19 0.20 0.22 0.24 0.26 0.30
0.04 0.04 0.04 0.04 0.04 0.04 0.04 0.03 0.03 0.03 0.03 0.03 0.05 0.08 0.10 0.10 0.09 0.08 0.08 0.09 0.09 0.10 0.08 0.08 0.10 0.13 0.15 0.12 0.12 0.12 0.11 0.12 0.13 0.12 0.13 0.14 0.17 0.20 0.22 0.24 0.26 0.26 0.28 0.31
0.06 0.06 0.06 0.06 0.06 0.06 0.05 0.04 0.03 0.03 0.03 0.04 0.04 0.05 0.07 0.09 0.10 0.09 0.09 0.09 0.10 0.11 0.09 0.10 0.14 0.16 0.14 0.12 0.13 0.14 0.14 0.15 0.16 0.18 0.18 0.19 0.21 0.23 0.24 0.25 0.27 0.30 0.34 0.36
0.05 0.05 0.05 0.05 0.06 0.07 0.07 0.07 0.06 0.05 0.05 0.04 0.04 0.04 0.05 0.06 0.08 0.08 0.08 0.08 0.08 0.10 0.10 0.10 0.10 0.10 0.10 0.10 0.11 0.11 0.11 0.12 0.14 0.15 0.17 0.19 0.20 0.22 0.24 0.25 0.26 0.31 0.36 0.39
0.07 0.06 0.06 0.05 0.06 0.07 0.08 0.08 0.08 0.09 0.09 0.08 0.07 0.06 0.06 0.07 0.08 0.09 0.09 0.08 0.08 0.08 0.09 0.11 0.10 0.10 0.10 0.10 0.10 0.10 0.10 0.11 0.12 0.14 0.15 0.16 0.17 0.20 0.22 0.25 0.28 0.31 0.36 0.41